Tanner, AL

9:44 AM CST on January 22, 2017 (GMT -0600)
Pryor Regional

Weather History for KDCU - February, 2014

Change the Weather History Date:

Thursday, February 27, 2014

  Actual Average Record
Temperature  
Mean Temperature 32 °F -  
Max Temperature 45 °F 57 °F 79 °F (1954)
Min Temperature 19 °F 34 °F 12 °F (1963)
Degree Days  
Heating Degree Days 33    
Moisture  
Dew Point 15 °F    
Average Humidity 53    
Maximum Humidity 81    
Minimum Humidity 27    
Precipitation  
Precipitation 0.00 in - - ()
Sea Level Pressure  
Sea Level Pressure 30.07 in    
Wind  
Wind Speed 5 mph (WNW)    
Max Wind Speed 13 mph    
Max Gust Speed 17 mph    
Visibility 10 miles    
Events      
Averages and records for this station are not official NWS values.
T = Trace of Precipitation, MM = Missing Value Source: NWS Daily Summary

Daily Weather History Graph

Daily Weather History Graph

Search for Another Location

Airport or City:

Trip Planner

Search our weather history database for the weather conditions in past years. The results will help you decide how hot, cold, wet, or windy it might be!

Date:

Astronomy

Feb. 27, 2014 Rise Set
Actual Time 6:19 AM CST 5:42 PM CST
Civil Twilight 5:54 AM CST 6:07 PM CST
Nautical Twilight 5:24 AM CST 6:36 PM CST
Astronomical Twilight 4:55 AM CST 7:05 PM CST
Moon 4:48 AM CST (2/27) 4:09 PM CST (2/27)
Length of Visible Light 12h 13m
Length of Day
11h 22m
Waning Crescent, 4% of the Moon is Illuminated
Feb 27
Waning Crescent
Mar 1
New
Mar 8
First Quarter
Mar 16
Full
Mar 23
Last Quarter

Hourly Weather History & Observations

Time (CST) Temp. Windchill Dew Point Humidity Pressure Visibility Wind Dir Wind Speed Gust Speed Precip Events Conditions
12:53 AM 24.1 °F 16.0 °F 10.9 °F 57% 30.08 in 10.0 mi NW 6.9 mph - N/A   Clear
1:53 AM 23.0 °F 14.7 °F 10.0 °F 58% 30.06 in 10.0 mi NW 6.9 mph - N/A   Clear
2:53 AM 21.9 °F 15.7 °F 12.0 °F 66% 30.06 in 10.0 mi WNW 4.6 mph - N/A   Clear
3:53 AM 19.0 °F 13.9 °F 12.0 °F 74% 30.07 in 10.0 mi NNW 3.5 mph - N/A   Clear
4:53 AM 19.0 °F - 14.0 °F 81% 30.07 in 10.0 mi Calm Calm - N/A   Clear
5:53 AM 19.0 °F - 12.0 °F 74% 30.09 in 10.0 mi Calm Calm - N/A   Clear
6:53 AM 21.0 °F - 12.0 °F 68% 30.09 in 10.0 mi Calm Calm - N/A   Clear
7:53 AM 27.0 °F - 17.1 °F 66% 30.11 in 10.0 mi Calm Calm - N/A   Clear
8:53 AM 30.9 °F 21.2 °F 14.0 °F 50% 30.12 in 10.0 mi NW 12.7 mph - N/A   Clear
9:53 AM 34.0 °F 28.0 °F 12.9 °F 42% 30.12 in 10.0 mi WNW 6.9 mph - N/A   Clear
10:53 AM 37.0 °F 31.6 °F 14.0 °F 39% 30.11 in 10.0 mi Variable 6.9 mph - N/A   Clear
11:53 AM 39.0 °F 32.8 °F 17.1 °F 41% 30.08 in 10.0 mi WSW 9.2 mph - N/A   Clear
12:53 PM 42.1 °F 36.6 °F 17.1 °F 37% 30.06 in 10.0 mi WSW 9.2 mph - N/A   Clear
1:53 PM 44.1 °F 38.1 °F 16.0 °F 32% 30.04 in 10.0 mi West 11.5 mph 17.3 mph N/A   Clear
2:53 PM 45.0 °F 39.3 °F 15.1 °F 30% 30.03 in 10.0 mi WSW 11.5 mph - N/A   Clear
3:53 PM 45.0 °F 40.1 °F 12.9 °F 27% 30.03 in 10.0 mi WSW 9.2 mph - N/A   Clear
4:53 PM 45.0 °F 41.2 °F 12.9 °F 27% 30.02 in 10.0 mi West 6.9 mph - N/A   Clear
5:53 PM 41.0 °F 39.0 °F 15.1 °F 35% 30.02 in 10.0 mi WNW 3.5 mph - N/A   Clear
6:53 PM 35.1 °F - 17.1 °F 48% 30.03 in 10.0 mi Calm Calm - N/A   Clear
7:53 PM 30.0 °F - 21.0 °F 69% 30.04 in 10.0 mi Calm Calm - N/A   Clear
8:53 PM 30.0 °F - 21.9 °F 72% 30.06 in 10.0 mi Calm Calm - N/A   Clear
9:53 PM 28.0 °F - 21.9 °F 78% 30.07 in 10.0 mi Calm Calm - N/A   Clear
10:53 PM 32.0 °F 26.4 °F 16.0 °F 52% 30.07 in 10.0 mi NNE 5.8 mph - N/A   Clear
11:53 PM 32.0 °F 27.5 °F 14.0 °F 48% 30.07 in 10.0 mi NNE 4.6 mph - N/A   Clear